Vorticity
4 4 4 5 6 6 6 6 7 8 10 11 12 14 17 18 16 13 13 12 11 12 13 14 13 11 13 14 14 17 17 17 17 14 15 12 8 11 9 5 10 11
5 5 5 6 6 6 6 5 6 8 10 12 14 17 19 18 16 14 14 14 13 12 12 13 13 12 12 11 10 12 13 16 19 19 19 15 10 14 12 6 9 10
6 5 6 7 7 6 5 4 6 7 10 14 16 19 20 17 14 12 12 12 12 12 11 12 13 13 13 13 12 11 10 10 14 19 22 20 14 10 10 11 9 8
5 6 7 7 7 6 5 5 6 7 9 14 18 19 18 15 12 11 10 10 11 11 11 11 13 14 15 16 16 14 12 10 9 12 18 23 21 12 7 11 10 10
5 6 7 7 7 6 5 5 6 8 10 14 18 20 18 14 11 10 10 10 10 11 13 14 15 16 16 16 17 16 14 12 9 9 10 16 24 22 12 9 8 10
5 7 7 7 8 6 5 5 7 9 10 13 18 18 16 14 12 10 9 9 11 13 16 17 17 18 18 17 17 17 17 15 11 9 9 10 17 24 23 15 9 9
5 7 7 8 8 7 5 4 7 10 11 14 17 17 16 16 14 11 9 9 11 14 15 16 15 15 16 18 18 19 20 21 18 12 10 9 11 18 25 22 15 10
5 6 6 7 8 7 6 4 7 11 12 15 17 17 17 18 15 10 7 9 13 15 15 12 12 13 15 17 16 16 20 24 25 21 15 12 12 15 21 24 20 14
5 5 6 7 7 8 7 5 7 11 14 16 17 17 18 19 15 8 6 8 13 18 17 12 11 16 18 20 19 15 17 22 23 22 20 17 16 18 22 24 21 15
4 5 6 7 7 8 7 5 8 12 15 17 17 16 16 17 14 7 4 4 9 16 19 13 10 15 18 21 26 23 18 20 21 19 21 23 23 24 23 22 24 18
4 4 6 7 7 7 7 5 8 13 16 18 18 15 13 14 12 8 3 1 3 9 18 16 9 14 18 13 15 21 20 20 19 14 12 15 20 25 23 20 23 21
4 4 6 7 7 6 6 6 9 13 16 18 19 15 11 10 9 8 6 3 1 3 12 17 11 11 18 13 6 10 16 21 23 18 14 14 19 26 26 23 23 20
4 4 6 7 7 7 7 8 9 12 15 18 20 16 11 10 9 7 6 5 4 4 7 15 15 10 15 20 15 7 7 13 19 19 17 19 26 29 27 24 22 19
4 5 6 7 8 8 9 9 9 11 15 19 20 15 11 12 13 9 8 8 7 7 7 11 16 14 12 18 18 10 5 8 17 22 14 9 18 29 27 21 18 19
5 6 7 8 9 10 10 11 9 10 15 20 21 16 9 10 14 13 10 10 9 8 8 10 14 14 12 16 18 12 7 7 14 23 21 14 17 25 27 21 15 17
6 7 9 10 9 10 11 11 9 10 15 20 20 16 9 8 13 13 10 11 11 9 9 10 12 12 11 14 18 16 12 10 12 16 17 18 18 21 26 25 16 14
7 8 10 11 10 11 12 11 9 11 16 19 18 14 10 9 13 13 9 9 11 10 8 9 11 12 11 12 17 20 15 9 13 19 16 15 18 18 23 29 21 13
8 10 11 11 9 12 13 11 10 13 16 17 15 13 11 12 14 13 9 7 10 10 8 8 10 11 11 12 16 23 19 5 5 19 21 17 20 18 20 31 30 17
9 10 10 10 10 13 15 13 12 14 15 14 13 14 14 14 15 13 9 6 9 10 8 8 10 11 11 12 15 23 27 13 5 17 24 22 24 24 22 29 31 18
9 10 9 10 13 15 14 13 13 13 14 12 13 16 18 17 16 14 10 7 9 11 9 8 10 11 9 10 12 20 28 21 9 12 22 24 24 26 24 24 25 17
10 11 10 12 15 15 14 14 13 12 12 13 14 17 18 18 17 14 11 10 10 10 9 8 10 10 9 7 9 16 24 23 11 7 18 25 21 19 22 21 22 20
11 12 13 14 15 16 16 14 13 11 12 15 17 17 18 18 17 14 12 11 10 9 9 9 9 8 9 8 10 15 20 21 15 7 16 31 26 18 21 19 13 14
14 14 13 14 15 17 17 13 9 8 12 18 20 17 17 18 16 15 13 10 9 10 10 9 8 7 8 8 10 15 17 20 20 10 13 34 33 15 17 23 15 8
14 13 13 15 18 18 14 9 7 8 13 19 21 17 16 17 14 12 10 7 8 11 11 10 8 7 8 7 8 13 15 20 25 14 8 29 37 17 8 19 20 12
14 14 14 17 18 16 11 9 10 11 14 19 20 16 14 13 12 11 9 8 8 10 11 11 9 6 6 5 5 10 14 20 28 19 5 16 34 30 15 15 25 24
15 13 13 15 18 15 11 11 13 13 13 17 18 15 13 11 10 10 11 10 10 12 12 11 10 7 5 4 3 6 11 19 25 22 9 6 21 33 24 13 21 35
Height
5866 5864 5862 5859 5857 5854 5851 5848 5845 5842 5838 5835 5832 5829 5826 5823 5821 5819 5817 5815 5813 5812 5811 5809 5807 5806 5805 5804 5802 5802 5802 5802 5802 5803 5803 5804 5806 5806 5806 5808 5810 5812
5863 5861 5858 5855 5852 5850 5847 5844 5841 5837 5834 5830 5827 5824 5821 5818 5816 5814 5812 5810 5808 5806 5805 5804 5802 5801 5800 5799 5798 5797 5796 5796 5796 5796 5797 5797 5798 5800 5802 5802 5802 5805
5860 5857 5854 5852 5848 5845 5842 5839 5836 5833 5829 5825 5822 5819 5816 5814 5811 5809 5807 5805 5802 5800 5799 5797 5796 5795 5794 5793 5793 5791 5790 5790 5790 5790 5790 5790 5791 5793 5795 5795 5796 5798
5856 5854 5851 5848 5845 5841 5838 5834 5831 5828 5824 5821 5817 5814 5812 5809 5806 5804 5802 5800 5797 5795 5793 5791 5790 5789 5788 5787 5786 5786 5784 5783 5784 5784 5783 5784 5784 5786 5788 5788 5789 5791
5852 5850 5847 5844 5841 5837 5834 5830 5826 5823 5819 5816 5813 5810 5807 5805 5802 5800 5797 5795 5793 5790 5788 5785 5784 5782 5781 5780 5780 5779 5778 5777 5777 5777 5777 5777 5777 5778 5780 5781 5783 5784
5848 5846 5843 5840 5836 5833 5829 5826 5822 5818 5815 5811 5808 5805 5803 5800 5798 5795 5793 5791 5788 5786 5783 5781 5779 5777 5775 5774 5773 5772 5771 5771 5770 5769 5770 5770 5770 5771 5772 5774 5776 5777
5844 5841 5838 5835 5832 5828 5825 5821 5818 5814 5810 5807 5803 5800 5798 5795 5793 5791 5788 5786 5784 5781 5779 5776 5774 5772 5770 5768 5767 5765 5764 5763 5763 5762 5762 5762 5763 5764 5765 5766 5769 5771
5839 5837 5834 5830 5827 5824 5820 5817 5813 5810 5806 5802 5799 5796 5793 5791 5788 5786 5784 5782 5779 5777 5775 5772 5770 5767 5765 5762 5761 5759 5758 5757 5756 5756 5755 5755 5756 5757 5758 5759 5761 5764
5835 5832 5829 5825 5822 5819 5816 5812 5809 5805 5802 5798 5795 5792 5789 5787 5784 5782 5780 5778 5775 5773 5771 5768 5765 5763 5760 5757 5755 5754 5752 5751 5750 5750 5749 5749 5749 5750 5751 5752 5754 5757
5830 5827 5824 5821 5818 5815 5811 5808 5804 5801 5797 5794 5791 5788 5785 5783 5780 5778 5776 5773 5771 5769 5766 5764 5761 5758 5755 5752 5750 5749 5747 5746 5745 5744 5743 5743 5743 5744 5744 5746 5747 5750
5825 5822 5819 5816 5813 5810 5807 5803 5800 5796 5793 5790 5787 5784 5781 5778 5776 5774 5772 5769 5767 5764 5762 5759 5756 5753 5750 5748 5746 5744 5742 5741 5740 5739 5738 5738 5738 5738 5739 5740 5741 5743
5821 5818 5815 5812 5809 5805 5802 5799 5796 5792 5789 5786 5783 5780 5777 5774 5772 5770 5767 5765 5762 5760 5758 5754 5751 5749 5746 5744 5742 5740 5738 5736 5735 5734 5733 5733 5733 5733 5733 5734 5735 5737
5817 5814 5811 5807 5804 5801 5797 5794 5791 5788 5785 5782 5779 5776 5773 5771 5768 5766 5763 5760 5758 5756 5753 5750 5747 5745 5742 5739 5737 5736 5734 5732 5731 5730 5729 5728 5727 5727 5728 5728 5729 5731
5813 5809 5806 5803 5800 5797 5793 5790 5786 5783 5780 5778 5775 5771 5769 5766 5764 5762 5759 5756 5753 5751 5749 5746 5743 5741 5738 5735 5733 5731 5729 5728 5726 5725 5724 5723 5722 5722 5722 5723 5724 5726
5809 5806 5802 5799 5796 5793 5789 5785 5782 5779 5776 5773 5770 5767 5764 5762 5760 5758 5755 5752 5749 5747 5745 5742 5739 5737 5734 5731 5729 5727 5725 5723 5722 5720 5719 5718 5718 5718 5717 5718 5719 5721
5805 5802 5798 5795 5792 5789 5785 5781 5778 5774 5771 5769 5766 5763 5760 5757 5755 5753 5750 5748 5745 5743 5741 5738 5735 5732 5730 5727 5725 5723 5721 5720 5718 5716 5715 5714 5713 5713 5713 5713 5714 5716
5801 5797 5794 5791 5788 5784 5780 5777 5773 5770 5767 5764 5761 5758 5755 5753 5751 5749 5746 5744 5741 5739 5736 5734 5732 5729 5726 5724 5721 5719 5717 5716 5714 5712 5711 5709 5708 5708 5709 5709 5709 5711
5796 5793 5789 5786 5783 5780 5776 5772 5769 5766 5763 5760 5757 5754 5751 5749 5747 5744 5742 5739 5737 5735 5733 5731 5728 5726 5723 5720 5718 5715 5714 5713 5710 5708 5707 5705 5704 5704 5704 5704 5704 5706
5791 5788 5784 5781 5778 5775 5771 5768 5765 5761 5759 5756 5753 5750 5747 5744 5742 5740 5738 5736 5734 5731 5729 5727 5725 5722 5720 5717 5715 5712 5710 5709 5707 5705 5703 5701 5701 5700 5700 5700 5700 5702
5786 5782 5779 5776 5773 5770 5767 5763 5760 5757 5754 5751 5748 5745 5743 5740 5738 5736 5734 5732 5730 5728 5726 5724 5722 5719 5717 5714 5712 5709 5706 5705 5703 5702 5699 5698 5697 5697 5696 5696 5697 5697
5780 5777 5774 5771 5768 5765 5762 5758 5756 5753 5750 5746 5744 5741 5739 5736 5734 5732 5730 5728 5726 5725 5723 5721 5718 5716 5714 5711 5709 5706 5703 5701 5700 5698 5696 5694 5694 5693 5693 5693 5693 5693
5775 5772 5769 5767 5764 5760 5757 5754 5751 5749 5746 5743 5740 5737 5735 5732 5730 5728 5727 5725 5723 5722 5720 5718 5715 5713 5711 5709 5706 5703 5700 5698 5697 5695 5693 5691 5690 5689 5689 5690 5690 5690
5771 5768 5765 5762 5759 5755 5753 5750 5747 5745 5742 5739 5736 5733 5731 5729 5726 5724 5723 5722 5720 5719 5717 5715 5713 5711 5709 5707 5704 5701 5698 5695 5694 5693 5691 5689 5687 5686 5685 5685 5686 5686
5766 5763 5760 5757 5754 5751 5748 5746 5744 5741 5738 5735 5733 5730 5728 5726 5724 5722 5720 5719 5717 5716 5715 5713 5710 5708 5706 5704 5702 5699 5696 5693 5692 5690 5689 5687 5685 5683 5682 5682 5682 5682
5762 5759 5756 5753 5750 5747 5744 5742 5740 5737 5735 5732 5729 5727 5725 5723 5721 5719 5717 5716 5715 5713 5712 5710 5708 5706 5704 5702 5699 5697 5695 5692 5689 5688 5686 5684 5682 5680 5679 5679 5679 5679
5757 5754 5751 5748 5746 5743 5740 5738 5736 5733 5731 5728 5726 5724 5722 5720 5718 5717 5715 5713 5712 5711 5709 5708 5705 5703 5701 5699 5697 5695 5693 5690 5687 5685 5684 5682 5680 5678 5676 5676 5676 5676